Tracking 34410 objects as of 16-Jun-2026
HD Live streaming from Space Station
objects crossing your sky now

STARLINK-34041

Track STARLINK-34041 now!
10-day predictions
STARLINK-34041 is classified as:


NORAD ID: 63844
Int'l Code: 2025-093J
Perigee: 488.9 km
Apogee: 491.4 km
Inclination: 43.0 °
Period: 94.3 minutes
Semi major axis: 6861 km
RCS: Unknown
Launch date: May 7, 2025
Source: United States (US)
Launch site: AIR FORCE EASTERN TEST RANGE (AFETR)
Your satellite tracking list
Your tracking list is empty




NASA's NSSDC Master Catalog

Two Line Element Set (TLE):
1 63844U 25093J   26166.93214292  .00011509  00000-0  42709-3 0  9998
2 63844  43.0037 243.3794 0001838 267.8169  92.2472 15.27581397 62995
Source of the keplerian elements: AFSPC